Stations météo

réclame
Mon MeteoGroup
Rodkallen, Suède (2188): Température de l'air & dewpoint: 01.08.2020 06:00:00 - 07.08.2020 06:00:00 (CEST)Rodkallen, Suède (2188): Vitesse du vent & gusts: 01.08.2020 06:00:00 - 07.08.2020 06:00:00 (CEST)Rodkallen, Suède (2188): Direction du vent: 01.08.2020 06:00:00 - 07.08.2020 06:00:00 (CEST)Rodkallen, Suède (2188): visibility: 01.08.2020 06:00:00 - 07.08.2020 06:00:00 (CEST)Rodkallen, Suède (2188): Quantités de précipitations: 01.08.2020 06:00:00 - 07.08.2020 06:00:00 (CEST)
Date & Time tt [°C] td [°C] ff [km/h] ff [knt] fx [km/h] fx [knt] dd vv [km] rr [mm]
07.08.2020 06:00:00 16,9 15,1 14 8 18 10 SSW 40 0,0
07.08.2020 05:00:00 16,5 15,2 13 7 16 8 SSW 50 0,0
07.08.2020 04:00:00 16,6 15,0 12 6 19 11 SSW 26 0,0
07.08.2020 03:00:00 16,9 14,7 17 9 24 13 SW 50 0,0
07.08.2020 02:00:00 16,9 15,1 17 9 20 11 SSW 50 0,0
07.08.2020 01:00:00 17,0 15,2 13 7 20 11 SW 50 0,0
07.08.2020 00:00:00 17,0 15,3 18 10 24 13 SSW 50 0,0
06.08.2020 23:00:00 16,6 15,5 18 10 29 16 S 43 0,0
06.08.2020 22:00:00 16,8 15,1 21 11 26 14 S 50 0,0
06.08.2020 21:00:00 16,7 14,7 22 12 26 14 S 50 0,0
06.08.2020 20:00:00 16,7 14,7 23 12 29 16 S 48 0,0
06.08.2020 19:00:00 16,7 14,7 23 12 27 15 S 42 0,0
06.08.2020 18:00:00 16,6 14,8 24 13 27 14 SSE 50 0,0
06.08.2020 17:00:00 17,0 15,0 22 12 25 14 S 46 0,0
06.08.2020 16:00:00 16,8 14,8 23 12 27 15 SSE 45 0,0
06.08.2020 15:00:00 16,9 14,5 21 11 25 13 S 49 0,0
06.08.2020 14:00:00 17,1 14,4 22 12 24 13 S 41 0,0
06.08.2020 13:00:00 17,1 14,0 19 10 22 12 S 33 0,0
06.08.2020 12:00:00 16,8 14,1 14 8 17 9 S 39 0,0
06.08.2020 11:00:00 16,7 13,5 12 7 15 8 S 37 0,0
06.08.2020 10:00:00 16,2 13,3 11 6 17 9 SSW 35 0,0
06.08.2020 09:00:00 15,6 12,5 15 8 19 10 SSW 42 0,0
06.08.2020 08:00:00 15,5 12,8 15 8 21 11 SW 35 0,0
06.08.2020 07:00:00 15,6 12,5 16 9 19 10 SSW 39 0,0
06.08.2020 06:00:00 15,5 12,1 10 5 14 8 SSW 40 0,0
06.08.2020 05:00:00 15,3 11,9 10 5 13 7 SSW 46 0,0
06.08.2020 04:00:00 15,3 13,0 13 7 19 11 SSW 48 0,0
06.08.2020 03:00:00 15,4 13,1 18 10 30 16 SSW 47 0,0
06.08.2020 02:00:00 15,6 13,1 26 14 37 20 SSW 38 0,0
06.08.2020 01:00:00 15,7 13,0 33 18 40 21 S 38 0,0
06.08.2020 00:00:00 16,1 13,0 31 17 39 21 S 46 0,0
05.08.2020 23:00:00 16,5 13,8 25 14 31 17 S 46 0,0
05.08.2020 22:00:00 16,4 12,4 5 3 23 13 S 29 0,0
05.08.2020 21:00:00 16,4 13,1 22 12 34 18 W 50 0,0
05.08.2020 20:00:00 17,1 13,6 24 13 37 20 SSW 50 0,0
05.08.2020 19:00:00 17,0 13,7 32 17 40 22 S 44 0,0
05.08.2020 18:00:00 17,3 13,4 34 18 39 21 S 40 0,0
05.08.2020 17:00:00 17,7 14,0 29 16 35 19 S 40 0,0
05.08.2020 16:00:00 17,8 13,5 29 16 37 20 S 36 0,0
05.08.2020 15:00:00 17,5 13,4 29 16 36 20 S 33 0,0
05.08.2020 14:00:00 17,4 12,5 28 15 33 18 S 45 0,0
05.08.2020 13:00:00 17,4 12,5 24 13 28 15 SSW 35 0,0
05.08.2020 12:00:00 17,0 11,5 23 12 27 15 SSW 43 0,0
05.08.2020 11:00:00 17,0 10,9 16 9 22 12 SW 46 0,0
05.08.2020 10:00:00 16,5 10,6 19 10 23 12 WSW 45 0,0
05.08.2020 09:00:00 15,9 10,9 13 7 22 12 W 42 0,0
05.08.2020 08:00:00 15,3 10,3 19 11 23 13 W 43 0,0
05.08.2020 07:00:00 14,9 10,5 19 11 26 14 W 50 0,0
05.08.2020 06:00:00 14,9 10,5 18 10 25 14 W 50 0,0
05.08.2020 05:00:00 15,0 11,0 23 13 27 15 W 48 0,0
05.08.2020 04:00:00 15,2 11,2 21 12 26 14 W 50 0,0
05.08.2020 03:00:00 15,8 12,0 21 12 26 14 W 50 0,0
05.08.2020 02:00:00 16,1 12,6 19 11 26 14 W 50 0,0
05.08.2020 01:00:00 16,5 13,0 20 11 24 13 WSW 50 0,0
05.08.2020 00:00:00 16,6 14,1 16 8 23 12 SSW 50 0,0
04.08.2020 23:00:00 16,3 14,2 17 9 22 12 SSW 50 0,0
04.08.2020 22:00:00 16,0 14,5 16 9 23 12 SSW 41 0,0
04.08.2020 21:00:00 16,5 13,6 13 7 19 10 SW 50 0,0
04.08.2020 20:00:00 16,6 14,6 14 8 27 15 SW 30 0,0
04.08.2020 19:00:00 16,6 15,1 18 10 29 16 S 26 0,0
04.08.2020 18:00:00 16,6 14,8 26 14 31 17 SSW 20 0,0
04.08.2020 17:00:00 16,7 14,8 22 12 25 13 SSE 27 0,0
04.08.2020 16:00:00 17,3 14,6 13 7 17 9 SSW 47 0,0
04.08.2020 15:00:00 17,4 14,7 14 8 18 10 S 27 0,0
04.08.2020 14:00:00 17,0 15,0 16 9 20 11 S 19 0,0
04.08.2020 13:00:00 16,8 14,8 12 7 14 8 S 32 0,0
04.08.2020 12:00:00 17,2 14,5 9 5 13 7 S 41 0,0
04.08.2020 11:00:00 16,3 14,6 10 6 13 7 E 31 0,0
04.08.2020 10:00:00 15,6 14,1 8 4 13 7 E 35 0,0
04.08.2020 09:00:00 15,2 13,9 9 5 12 6 NNE 37 0,0
04.08.2020 08:00:00 14,7 13,6 9 5 13 7 N 39 0,0
04.08.2020 07:00:00 14,7 13,9 6 3 11 6 N 30 0,0
04.08.2020 06:00:00 14,4 13,8 9 5 12 6 NNW 29 0,3
04.08.2020 05:00:00 14,2 13,6 4 2 7 4 NNW 2,7 0,3
04.08.2020 04:00:00 14,1 13,1 3 2 8 5 NNE 3,7 0,7
04.08.2020 03:00:00 14,1 12,7 9 5 14 7 E 7 1,3
04.08.2020 02:00:00 15,6 13,1 4 2 8 5 E 46 0,0
04.08.2020 01:00:00 15,3 13,0 5 3 6 4 E 50 0,0
04.08.2020 00:00:00 15,2 13,0 5 3 8 4 E 50 0,0
03.08.2020 23:00:00 15,1 13,0 5 3 8 4 E 42 0,0
03.08.2020 22:00:00 14,9 13,3 3 2 5 3 NE 38 0,0
03.08.2020 21:00:00 14,6 13,0 0 0 8 4 N 38 0,0
03.08.2020 20:00:00 15,5 13,3 6 3 10 5 SSE 39 0,0
03.08.2020 19:00:00 15,8 13,6 4 2 13 7 S 20 0,0
03.08.2020 18:00:00 16,0 12,6 8 4 11 6 SE 50 0,0
03.08.2020 17:00:00 16,0 12,5 8 4 13 7 ESE 37 0,0
03.08.2020 16:00:00 16,0 13,1 9 5 14 8 E 33 0,0
03.08.2020 15:00:00 16,3 13,4 9 5 16 9 E 36 0,0
03.08.2020 14:00:00 16,0 12,4 12 7 19 10 E 41 0,0
03.08.2020 13:00:00 16,1 12,5 16 8 22 12 ENE 32 0,0
03.08.2020 12:00:00 15,8 12,4 15 8 19 11 ENE 29 0,0
03.08.2020 11:00:00 15,8 13,1 16 9 21 12 NE 35 0,0
03.08.2020 10:00:00 15,6 13,1 18 10 23 12 NE 36 0,0
03.08.2020 09:00:00 15,6 13,4 19 10 24 13 NE 33 0,0
03.08.2020 08:00:00 15,6 13,6 19 11 25 13 NE 43 0,0
03.08.2020 07:00:00 15,3 13,3 19 11 23 12 NNE 37 0,0
03.08.2020 06:00:00 15,7 12,8 17 9 21 12 NE 44 0,0
03.08.2020 05:00:00 15,4 13,3 17 9 22 12 NE 37 0,0
03.08.2020 04:00:00 15,3 13,0 19 10 22 12 NE 49 0,0
03.08.2020 03:00:00 14,9 12,4 16 9 20 11 NNE 47 0,0
03.08.2020 02:00:00 15,3 12,1 16 9 22 12 NNE 50 0,0
03.08.2020 01:00:00 16,0 11,8 19 10 22 12 NE 50 0,0
03.08.2020 00:00:00 16,3 11,9 18 10 24 13 NE 50 0,0
02.08.2020 23:00:00 16,6 12,4 17 9 26 14 NE 50 0,0
02.08.2020 22:00:00 16,9 13,2 19 10 22 12 NE 46 0,0
02.08.2020 21:00:00 16,7 14,0 11 6 15 8 NE 41 0,0
02.08.2020 20:00:00 16,7 13,6 12 6 14 8 NE 50 0,0
02.08.2020 19:00:00 16,8 12,9 10 5 12 7 NE 48 0,0
02.08.2020 18:00:00 16,6 14,2 5 3 10 5 NE 17 0,0
02.08.2020 17:00:00 16,4 14,0 6 4 9 5 NE 21 0,0
02.08.2020 16:00:00 16,6 14,1 8 5 18 10 ENE 23 0,0
02.08.2020 15:00:00 16,4 14,2 12 7 16 9 NE 22 0,0
02.08.2020 14:00:00 16,4 13,9 14 8 23 12 NE 23 0,0
02.08.2020 13:00:00 16,0 13,8 18 10 26 14 NE 26 0,0
02.08.2020 12:00:00 16,1 14,3 22 12 28 15 NNE 21 0,0
02.08.2020 11:00:00 16,1 14,2 23 12 29 16 NNE 23 0,0
02.08.2020 10:00:00 16,2 13,5 18 10 22 12 NE 35 0,0
02.08.2020 09:00:00 16,2 13,3 14 7 19 11 NE 40 0,0
02.08.2020 08:00:00 16,0 13,8 17 9 22 12 NE 42 0,0
02.08.2020 07:00:00 15,9 13,4 9 5 21 11 ENE 33 0,0
02.08.2020 06:00:00 15,6 14,0 16 9 20 11 ENE 50 0,0
02.08.2020 05:00:00 15,6 14,1 16 8 20 11 ENE 43 0,0
02.08.2020 04:00:00 15,6 14,5 17 9 23 12 NE 43 0,0
02.08.2020 03:00:00 15,4 14,3 15 8 18 10 NNE 42 0,0
02.08.2020 02:00:00 14,5 13,2 5 3 7 4 N 50 0,0
02.08.2020 01:00:00 15,6 13,1 5 3 9 5 SSW 50 0,0
02.08.2020 00:00:00 14,9 13,8 4 2 6 4 W 24 0,0
01.08.2020 23:00:00 15,9 14,0 4 2 19 11 S 33 0,0
01.08.2020 22:00:00 16,2 14,2 14 8 19 10 ENE 37 0,0
01.08.2020 21:00:00 16,3 13,8 14 7 26 14 ESE 41 0,0
01.08.2020 20:00:00 17,7 13,2 16 8 33 18 SE 46 4,8
01.08.2020 19:00:00 16,9 14,2 16 9 46 25 E 43 0,1
01.08.2020 18:00:00 16,9 14,7 28 15 44 24 NNE 16 0,0
01.08.2020 17:00:00 17,7 14,4 12 7 18 10 SSE 43 0,0
01.08.2020 16:00:00 17,8 14,3 14 8 22 12 S 45 0,0
01.08.2020 15:00:00 17,3 14,9 14 8 23 12 SSW 44 0,0
01.08.2020 14:00:00 17,8 14,7 8 4 14 8 S 39 0,0
01.08.2020 13:00:00 17,2 14,5 14 7 16 9 S 34 0,0
01.08.2020 12:00:00 17,2 14,7 13 7 15 8 S 40 0,0
01.08.2020 11:00:00 16,4 13,9 6 4 13 7 S 42 0,0
01.08.2020 10:00:00 15,9 13,9 11 6 13 7 SSW 50 0,0
01.08.2020 09:00:00 16,0 13,7 8 5 11 6 SSW 30 0,0
01.08.2020 08:00:00 16,1 13,4 8 4 14 7 SW 30 0,0
01.08.2020 07:00:00 15,7 13,0 11 6 13 7 SW 39 0,0
01.08.2020 06:00:00 15,4 12,9 10 6 14 8 SW 45 0,0

tt = Température de l'air
td = dewpoint
ff = Vitesse du vent
fx = gusts
dd = Direction du vent
vv = visibility
rr = Quantités de précipitations

stations d'obs. à proximité